Time,TemperatureF,DewpointF,PressureIn,WindDirection,WindDirectionDegrees,WindSpeedMPH,WindSpeedGustMPH,Humidity,HourlyPrecipIn,Conditions,Clouds,dailyrainin,SoftwareType,DateUTC
2013-03-23 00:00:00,55.1,45.5,29.68,North,0,0.0,0.0,70,0.00,,,0.00,WUHU216HW,2013-03-23 04:00:00,
2013-03-23 00:01:00,55.1,45.5,29.68,North,0,0.0,0.0,70,0.00,,,0.00,WUHU216HW,2013-03-23 04:01:00,
2013-03-23 00:07:00,55.1,45.5,29.67,North,0,0.0,0.0,70,0.00,,,0.00,WUHU216HW,2013-03-23 04:07:00,
2013-03-23 00:12:00,54.9,45.7,29.68,North,0,0.0,0.0,71,0.00,,,0.00,WUHU216HW,2013-03-23 04:12:00,
2013-03-23 00:17:00,54.7,45.6,29.68,North,0,0.0,0.0,71,0.00,,,0.00,WUHU216HW,2013-03-23 04:17:00,
2013-03-23 00:22:00,54.7,45.6,29.69,North,0,0.0,0.0,71,0.00,,,0.00,WUHU216HW,2013-03-23 04:22:00,
2013-03-23 00:27:00,54.7,45.6,29.68,North,0,0.0,0.0,71,0.00,,,0.00,WUHU216HW,2013-03-23 04:27:00,
2013-03-23 00:32:00,54.7,45.6,29.69,North,0,0.0,0.0,71,0.00,,,0.00,WUHU216HW,2013-03-23 04:32:00,
2013-03-23 00:37:00,54.5,45.7,29.68,North,0,0.0,0.0,72,0.00,,,0.00,WUHU216HW,2013-03-23 04:37:00,
2013-03-23 00:42:00,54.7,45.9,29.68,North,0,0.0,0.0,72,0.00,,,0.00,WUHU216HW,2013-03-23 04:42:00,
2013-03-23 00:47:00,54.7,45.9,29.69,North,0,0.0,0.0,72,0.00,,,0.00,WUHU216HW,2013-03-23 04:47:00,
2013-03-23 00:52:00,54.7,45.9,29.69,North,0,0.0,0.0,72,0.00,,,0.00,WUHU216HW,2013-03-23 04:52:00,
2013-03-23 00:57:00,54.7,46.3,29.69,North,0,0.0,0.0,73,0.00,,,0.00,WUHU216HW,2013-03-23 04:57:00,
2013-03-23 01:02:00,55.1,47.6,29.68,North,0,0.0,0.0,76,0.00,,,0.00,WUHU216HW,2013-03-23 05:02:00,
2013-03-23 01:07:00,55.1,47.6,29.69,North,0,0.0,0.0,76,0.00,,,0.00,WUHU216HW,2013-03-23 05:07:00,
2013-03-23 01:12:00,55.1,47.6,29.69,North,0,0.0,0.0,76,0.00,,,0.00,WUHU216HW,2013-03-23 05:12:00,
2013-03-23 01:17:00,55.1,47.6,29.69,North,0,0.0,0.0,76,0.00,,,0.00,WUHU216HW,2013-03-23 05:17:00,
2013-03-23 01:22:00,55.1,46.9,29.69,North,0,0.0,0.0,74,0.00,,,0.00,WUHU216HW,2013-03-23 05:22:00,
2013-03-23 01:27:00,55.1,46.9,29.69,North,0,0.0,0.0,74,0.00,,,0.00,WUHU216HW,2013-03-23 05:27:00,
2013-03-23 01:32:00,55.3,47.1,29.68,North,0,0.0,0.0,74,0.00,,,0.00,WUHU216HW,2013-03-23 05:32:00,
2013-03-23 01:37:00,55.4,47.3,29.68,North,0,0.0,0.0,74,0.00,,,0.00,WUHU216HW,2013-03-23 05:37:00,
2013-03-23 01:42:00,55.4,48.0,29.68,North,0,0.0,0.0,76,0.00,,,0.00,WUHU216HW,2013-03-23 05:42:00,
2013-03-23 01:47:00,55.6,48.2,29.68,North,0,0.0,0.0,76,0.00,,,0.00,WUHU216HW,2013-03-23 05:47:00,
2013-03-23 01:52:00,55.6,48.2,29.69,North,0,0.0,0.0,76,0.00,,,0.00,WUHU216HW,2013-03-23 05:52:00,
2013-03-23 01:57:00,55.8,48.3,29.68,North,0,0.0,0.0,76,0.00,,,0.00,WUHU216HW,2013-03-23 05:57:00,
2013-03-23 02:02:00,55.8,48.0,29.68,North,0,0.0,0.0,75,0.00,,,0.00,WUHU216HW,2013-03-23 06:02:00,
2013-03-23 02:07:00,55.8,48.0,29.68,North,0,0.0,0.0,75,0.00,,,0.00,WUHU216HW,2013-03-23 06:07:00,
2013-03-23 02:12:00,55.8,48.0,29.69,North,0,0.0,0.0,75,0.00,,,0.00,WUHU216HW,2013-03-23 06:12:00,
2013-03-23 02:17:00,55.8,48.0,29.68,North,0,0.0,0.0,75,0.00,,,0.00,WUHU216HW,2013-03-23 06:17:00,
2013-03-23 02:22:00,55.8,48.0,29.68,North,0,0.0,0.0,75,0.00,,,0.00,WUHU216HW,2013-03-23 06:22:00,
2013-03-23 02:28:00,55.6,47.8,29.69,North,0,0.0,0.0,75,0.00,,,0.00,WUHU216HW,2013-03-23 06:28:00,
2013-03-23 02:33:00,55.6,48.2,29.68,North,0,0.0,0.0,76,0.00,,,0.00,WUHU216HW,2013-03-23 06:33:00,
2013-03-23 02:38:00,55.6,48.2,29.68,North,0,0.0,0.0,76,0.00,,,0.00,WUHU216HW,2013-03-23 06:38:00,
2013-03-23 02:43:00,55.6,48.2,29.68,North,0,0.0,0.0,76,0.00,,,0.00,WUHU216HW,2013-03-23 06:43:00,
2013-03-23 02:48:00,55.8,48.3,29.68,North,0,0.0,0.0,76,0.00,,,0.00,WUHU216HW,2013-03-23 06:48:00,
2013-03-23 02:53:00,55.8,48.3,29.66,North,0,0.0,0.0,76,0.00,,,0.00,WUHU216HW,2013-03-23 06:53:00,
2013-03-23 02:58:00,55.8,48.6,29.66,North,0,0.0,0.0,77,0.00,,,0.00,WUHU216HW,2013-03-23 06:58:00,
2013-03-23 03:03:00,56.0,48.8,29.66,North,0,0.0,0.0,77,0.00,,,0.00,WUHU216HW,2013-03-23 07:03:00,
2013-03-23 03:08:00,56.0,48.8,29.68,North,0,0.0,0.0,77,0.00,,,0.00,WUHU216HW,2013-03-23 07:08:00,
2013-03-23 03:13:00,55.8,48.6,29.68,North,0,0.0,0.0,77,0.00,,,0.00,WUHU216HW,2013-03-23 07:13:00,
2013-03-23 03:18:00,55.8,48.6,29.68,North,0,0.0,0.0,77,0.00,,,0.00,WUHU216HW,2013-03-23 07:18:00,
2013-03-23 03:23:00,56.0,48.8,29.68,North,0,0.0,0.0,77,0.00,,,0.00,WUHU216HW,2013-03-23 07:23:00,
2013-03-23 03:28:00,56.0,49.1,29.68,North,0,0.0,0.0,78,0.00,,,0.00,WUHU216HW,2013-03-23 07:28:00,
2013-03-23 03:33:00,56.0,49.1,29.68,North,0,0.0,0.0,78,0.00,,,0.00,WUHU216HW,2013-03-23 07:33:00,
2013-03-23 03:38:00,56.0,49.1,29.67,North,0,0.0,0.0,78,0.00,,,0.00,WUHU216HW,2013-03-23 07:38:00,
2013-03-23 03:43:00,56.2,49.3,29.67,North,0,0.0,0.0,78,0.00,,,0.00,WUHU216HW,2013-03-23 07:43:00,
2013-03-23 03:48:00,56.2,49.3,29.67,North,0,0.0,0.0,78,0.00,,,0.00,WUHU216HW,2013-03-23 07:48:00,
2013-03-23 03:53:00,56.2,49.0,29.67,North,0,0.0,0.0,77,0.00,,,0.00,WUHU216HW,2013-03-23 07:53:00,
2013-03-23 03:58:00,56.3,49.1,29.67,North,0,0.0,0.0,77,0.00,,,0.00,WUHU216HW,2013-03-23 07:58:00,
2013-03-23 04:03:00,56.3,49.5,29.68,North,0,0.0,0.0,78,0.00,,,0.00,WUHU216HW,2013-03-23 08:03:00,
2013-03-23 04:08:00,56.3,49.5,29.70,North,0,0.0,0.0,78,0.00,,,0.00,WUHU216HW,2013-03-23 08:08:00,
2013-03-23 04:13:00,56.3,49.5,29.68,North,0,0.0,0.0,78,0.00,,,0.00,WUHU216HW,2013-03-23 08:13:00,
2013-03-23 04:18:00,56.5,49.7,29.68,North,0,0.0,0.0,78,0.00,,,0.00,WUHU216HW,2013-03-23 08:18:00,
2013-03-23 04:23:00,56.5,50.0,29.68,North,0,0.0,0.0,79,0.00,,,0.00,WUHU216HW,2013-03-23 08:23:00,
2013-03-23 04:28:00,56.7,50.2,29.68,North,0,0.0,0.0,79,0.00,,,0.00,WUHU216HW,2013-03-23 08:28:00,
2013-03-23 04:33:00,56.7,50.2,29.68,North,0,0.0,0.0,79,0.00,,,0.00,WUHU216HW,2013-03-23 08:33:00,
2013-03-23 04:38:00,56.9,50.0,29.68,North,0,0.0,0.0,78,0.00,,,0.00,WUHU216HW,2013-03-23 08:38:00,
2013-03-23 04:43:00,56.9,50.0,29.70,North,0,0.0,0.0,78,0.00,,,0.00,WUHU216HW,2013-03-23 08:43:00,
2013-03-23 04:48:00,56.9,50.0,29.70,North,0,0.0,0.0,78,0.00,,,0.00,WUHU216HW,2013-03-23 08:48:00,
2013-03-23 04:53:00,56.9,50.0,29.69,North,0,0.0,0.0,78,0.00,,,0.00,WUHU216HW,2013-03-23 08:53:00,
2013-03-23 04:58:00,57.6,51.1,29.69,North,0,0.0,0.0,79,0.00,,,0.00,WUHU216HW,2013-03-23 08:58:00,
2013-03-23 05:03:00,57.8,51.3,29.69,North,0,0.0,0.0,79,0.00,,,0.00,WUHU216HW,2013-03-23 09:03:00,
2013-03-23 05:08:00,58.0,51.5,29.69,North,0,0.0,0.0,79,0.00,,,0.00,WUHU216HW,2013-03-23 09:08:00,
2013-03-23 05:13:00,58.0,51.5,29.69,North,0,0.0,0.0,79,0.00,,,0.00,WUHU216HW,2013-03-23 09:13:00,
2013-03-23 05:18:00,58.0,51.5,29.70,North,0,0.0,0.0,79,0.00,,,0.00,WUHU216HW,2013-03-23 09:18:00,
2013-03-23 05:23:00,58.0,51.5,29.69,North,0,0.0,0.0,79,0.00,,,0.00,WUHU216HW,2013-03-23 09:23:00,
2013-03-23 05:28:00,58.0,51.5,29.69,North,0,0.0,0.0,79,0.00,,,0.00,WUHU216HW,2013-03-23 09:28:00,
2013-03-23 05:33:00,58.1,51.7,29.71,North,0,0.0,0.0,79,0.00,,,0.00,WUHU216HW,2013-03-23 09:33:00,
2013-03-23 05:38:00,58.3,51.8,29.69,North,0,0.0,0.0,79,0.00,,,0.00,WUHU216HW,2013-03-23 09:38:00,
2013-03-23 05:43:00,58.3,51.8,29.69,North,0,0.0,0.0,79,0.00,,,0.00,WUHU216HW,2013-03-23 09:43:00,
2013-03-23 05:48:00,58.3,51.8,29.69,North,0,0.0,0.0,79,0.00,,,0.00,WUHU216HW,2013-03-23 09:48:00,
2013-03-23 05:53:00,58.3,51.8,29.70,North,0,0.0,0.0,79,0.00,,,0.00,WUHU216HW,2013-03-23 09:53:00,
2013-03-23 05:58:00,58.3,51.8,29.70,North,0,0.0,0.0,79,0.00,,,0.00,WUHU216HW,2013-03-23 09:58:00,
2013-03-23 06:03:00,58.3,52.2,29.70,North,0,0.0,0.0,80,0.00,,,0.00,WUHU216HW,2013-03-23 10:03:00,
2013-03-23 06:08:00,58.3,52.2,29.71,North,0,0.0,0.0,80,0.00,,,0.00,WUHU216HW,2013-03-23 10:08:00,
2013-03-23 06:13:00,58.3,51.8,29.71,North,0,0.0,0.0,79,0.00,,,0.00,WUHU216HW,2013-03-23 10:13:00,
2013-03-23 06:18:00,58.3,51.8,29.72,North,0,0.0,0.0,79,0.00,,,0.00,WUHU216HW,2013-03-23 10:18:00,
2013-03-23 06:23:00,58.5,52.0,29.72,North,0,0.0,0.0,79,0.00,,,0.00,WUHU216HW,2013-03-23 10:23:00,
2013-03-23 06:28:00,58.7,52.2,29.70,North,0,0.0,0.0,79,0.00,,,0.00,WUHU216HW,2013-03-23 10:28:00,
2013-03-23 06:33:00,58.7,52.2,29.70,North,0,0.0,0.0,79,0.00,,,0.00,WUHU216HW,2013-03-23 10:33:00,
2013-03-23 06:38:00,58.9,52.4,29.66,North,0,0.0,0.0,79,0.00,,,0.00,WUHU216HW,2013-03-23 10:38:00,
2013-03-23 06:43:00,59.0,52.9,29.66,North,0,0.0,0.0,80,0.00,,,0.00,WUHU216HW,2013-03-23 10:43:00,
2013-03-23 06:48:00,59.0,52.9,29.66,North,0,0.0,0.0,80,0.00,,,0.00,WUHU216HW,2013-03-23 10:48:00,
2013-03-23 06:53:00,59.0,52.9,29.66,North,0,0.0,0.0,80,0.00,,,0.00,WUHU216HW,2013-03-23 10:53:00,
2013-03-23 06:58:00,59.0,52.9,29.66,North,0,0.0,0.0,80,0.00,,,0.00,WUHU216HW,2013-03-23 10:58:00,
2013-03-23 07:03:00,59.6,53.8,29.66,North,0,0.0,0.0,81,0.00,,,0.00,WUHU216HW,2013-03-23 11:03:00,
2013-03-23 07:08:00,59.9,54.2,29.62,North,0,0.0,0.0,81,0.00,,,0.00,WUHU216HW,2013-03-23 11:08:00,
2013-03-23 07:13:00,60.1,54.4,29.62,North,0,0.0,0.0,81,0.00,,,0.00,WUHU216HW,2013-03-23 11:13:00,
2013-03-23 07:18:00,60.1,54.4,29.62,North,0,0.0,0.0,81,0.00,,,0.00,WUHU216HW,2013-03-23 11:18:00,
2013-03-23 07:23:00,60.1,54.0,29.63,North,0,0.0,0.0,80,0.00,,,0.00,WUHU216HW,2013-03-23 11:23:00,
2013-03-23 07:28:00,60.3,54.6,29.62,North,0,0.0,0.0,81,0.00,,,0.00,WUHU216HW,2013-03-23 11:28:00,
2013-03-23 07:33:00,60.5,55.0,29.62,North,0,0.0,0.0,82,0.00,,,0.00,WUHU216HW,2013-03-23 11:33:00,
2013-03-23 07:38:00,60.5,54.7,29.62,North,0,0.0,0.0,81,0.00,,,0.00,WUHU216HW,2013-03-23 11:38:00,
2013-03-23 07:43:00,60.5,54.4,29.62,North,0,0.0,0.0,80,0.00,,,0.00,WUHU216HW,2013-03-23 11:43:00,
2013-03-23 07:48:00,60.7,54.9,29.62,North,0,0.0,0.0,81,0.00,,,0.00,WUHU216HW,2013-03-23 11:48:00,
2013-03-23 07:53:00,60.8,55.1,29.62,North,0,0.0,0.0,81,0.00,,,0.00,WUHU216HW,2013-03-23 11:53:00,
2013-03-23 07:58:00,60.8,55.1,29.62,North,0,0.0,0.0,81,0.00,,,0.00,WUHU216HW,2013-03-23 11:58:00,
2013-03-23 08:03:00,60.8,55.1,29.61,North,0,0.0,0.0,81,0.00,,,0.00,WUHU216HW,2013-03-23 12:03:00,
2013-03-23 08:08:00,60.8,55.1,29.63,North,0,0.0,0.0,81,0.00,,,0.00,WUHU216HW,2013-03-23 12:08:00,
2013-03-23 08:13:00,60.8,55.1,29.64,North,0,0.0,0.0,81,0.00,,,0.00,WUHU216HW,2013-03-23 12:13:00,
2013-03-23 08:18:00,60.8,55.1,29.63,North,0,0.0,0.0,81,0.00,,,0.00,WUHU216HW,2013-03-23 12:18:00,
2013-03-23 08:23:00,61.6,55.7,29.64,North,0,0.0,0.0,81,0.00,,,0.00,WUHU216HW,2013-03-23 12:23:00,
2013-03-23 08:28:00,61.9,56.1,29.64,North,0,0.0,0.0,81,0.00,,,0.00,WUHU216HW,2013-03-23 12:28:00,
2013-03-23 08:33:00,62.3,56.3,29.64,North,0,0.0,0.0,81,0.00,,,0.00,WUHU216HW,2013-03-23 12:33:00,
2013-03-23 08:38:00,62.6,56.3,29.64,North,0,0.0,0.0,80,0.00,,,0.00,WUHU216HW,2013-03-23 12:38:00,
2013-03-23 08:43:00,62.8,56.5,29.64,North,0,0.0,0.0,80,0.00,,,0.00,WUHU216HW,2013-03-23 12:43:00,
2013-03-23 08:48:00,63.0,56.7,29.65,North,0,0.0,0.0,80,0.00,,,0.00,WUHU216HW,2013-03-23 12:48:00,
2013-03-23 08:53:00,63.4,56.7,29.64,North,0,0.0,0.0,79,0.00,,,0.00,WUHU216HW,2013-03-23 12:53:00,
2013-03-23 08:58:00,63.5,56.9,29.64,North,0,0.0,0.0,79,0.00,,,0.00,WUHU216HW,2013-03-23 12:58:00,
2013-03-23 09:03:00,63.7,57.1,29.63,North,0,0.0,0.0,79,0.00,,,0.00,WUHU216HW,2013-03-23 13:03:00,
2013-03-23 09:08:00,64.1,57.8,29.64,North,0,0.0,0.0,80,0.00,,,0.00,WUHU216HW,2013-03-23 13:08:00,
2013-03-23 09:13:00,64.4,58.1,29.63,North,0,0.0,0.0,80,0.00,,,0.00,WUHU216HW,2013-03-23 13:13:00,
2013-03-23 09:18:00,64.6,58.3,29.64,North,0,0.0,0.0,80,0.00,,,0.00,WUHU216HW,2013-03-23 13:18:00,
2013-03-23 09:23:00,64.8,58.5,29.63,North,0,0.0,0.0,80,0.00,,,0.00,WUHU216HW,2013-03-23 13:23:00,
2013-03-23 09:28:00,65.0,58.7,29.63,North,0,0.0,0.0,80,0.00,,,0.00,WUHU216HW,2013-03-23 13:28:00,
2013-03-23 09:33:00,65.5,59.2,29.63,North,0,0.0,0.0,80,0.00,,,0.00,WUHU216HW,2013-03-23 13:33:00,
2013-03-23 09:38:00,65.9,59.6,29.63,North,0,0.0,0.0,80,0.00,,,0.00,WUHU216HW,2013-03-23 13:38:00,
2013-03-23 09:43:00,66.2,59.6,29.63,North,0,0.0,0.0,79,0.00,,,0.00,WUHU216HW,2013-03-23 13:43:00,
2013-03-23 09:48:00,66.4,59.8,29.63,North,0,0.0,0.0,79,0.00,,,0.00,WUHU216HW,2013-03-23 13:48:00,
2013-03-23 09:53:00,66.4,59.8,29.62,North,0,0.0,0.0,79,0.00,,,0.00,WUHU216HW,2013-03-23 13:53:00,
2013-03-23 09:58:00,66.4,59.8,29.62,North,0,0.0,0.0,79,0.00,,,0.00,WUHU216HW,2013-03-23 13:58:00,
2013-03-23 10:03:00,67.7,61.0,29.63,North,0,0.0,0.0,79,0.00,,,0.00,WUHU216HW,2013-03-23 14:03:00,
2013-03-23 10:08:00,68.0,61.0,29.62,North,0,0.0,0.0,78,0.00,,,0.00,WUHU216HW,2013-03-23 14:08:00,
2013-03-23 10:13:00,68.4,61.3,29.61,North,0,0.0,0.0,78,0.00,,,0.00,WUHU216HW,2013-03-23 14:13:00,
2013-03-23 10:18:00,68.2,60.8,29.61,North,0,0.0,0.0,77,0.00,,,0.00,WUHU216HW,2013-03-23 14:18:00,
2013-03-23 10:23:00,68.8,61.3,29.61,North,0,0.0,0.0,77,0.00,,,0.00,WUHU216HW,2013-03-23 14:23:00,
2013-03-23 10:28:00,69.3,61.7,29.60,North,0,0.0,0.0,77,0.00,,,0.00,WUHU216HW,2013-03-23 14:28:00,
2013-03-23 10:33:00,70.2,62.2,29.61,North,0,0.0,0.0,76,0.00,,,0.00,WUHU216HW,2013-03-23 14:33:00,
2013-03-23 10:38:00,70.0,62.0,29.62,North,0,0.0,0.0,76,0.00,,,0.00,WUHU216HW,2013-03-23 14:38:00,
2013-03-23 10:43:00,69.7,61.7,29.62,North,0,0.0,0.0,76,0.00,,,0.00,WUHU216HW,2013-03-23 14:43:00,
2013-03-23 10:48:00,69.5,61.6,29.62,North,0,0.0,0.0,76,0.00,,,0.00,WUHU216HW,2013-03-23 14:48:00,
2013-03-23 10:53:00,69.1,61.6,29.62,North,0,0.0,0.0,77,0.00,,,0.00,WUHU216HW,2013-03-23 14:53:00,
2013-03-23 10:58:00,69.1,61.6,29.63,North,0,0.0,0.0,77,0.00,,,0.00,WUHU216HW,2013-03-23 14:58:00,
2013-03-23 11:03:00,68.8,61.3,29.63,North,0,0.0,0.0,77,0.00,,,0.00,WUHU216HW,2013-03-23 15:03:00,
2013-03-23 11:08:00,68.6,61.1,29.63,North,0,0.0,0.0,77,0.00,,,0.00,WUHU216HW,2013-03-23 15:08:00,
2013-03-23 11:13:00,68.6,61.1,29.62,North,0,0.0,0.0,77,0.00,,,0.00,WUHU216HW,2013-03-23 15:13:00,
2013-03-23 11:18:00,68.8,61.3,29.62,North,0,0.0,0.0,77,0.00,,,0.00,WUHU216HW,2013-03-23 15:18:00,
2013-03-23 11:23:00,68.6,61.1,29.63,North,0,0.0,0.0,77,0.00,,,0.00,WUHU216HW,2013-03-23 15:23:00,
2013-03-23 11:28:00,68.4,60.9,29.63,North,0,0.0,0.0,77,0.00,,,0.00,WUHU216HW,2013-03-23 15:28:00,
2013-03-23 11:33:00,68.2,61.1,29.63,North,0,0.0,0.0,78,0.00,,,0.00,WUHU216HW,2013-03-23 15:33:00,
2013-03-23 11:38:00,68.0,61.0,29.63,North,0,0.0,0.0,78,0.00,,,0.00,WUHU216HW,2013-03-23 15:38:00,
2013-03-23 11:43:00,68.0,61.0,29.62,North,0,0.0,0.0,78,0.00,,,0.00,WUHU216HW,2013-03-23 15:43:00,
2013-03-23 11:48:00,68.0,61.0,29.62,North,0,0.0,0.0,78,0.00,,,0.00,WUHU216HW,2013-03-23 15:48:00,
2013-03-23 11:53:00,67.7,61.0,29.62,North,0,0.0,0.0,79,0.00,,,0.00,WUHU216HW,2013-03-23 15:53:00,
2013-03-23 11:58:00,67.5,60.9,29.61,North,0,0.0,0.0,79,0.00,,,0.00,WUHU216HW,2013-03-23 15:58:00,
2013-03-23 12:03:00,67.3,60.7,29.61,North,0,0.0,0.0,79,0.00,,,0.00,WUHU216HW,2013-03-23 16:03:00,
2013-03-23 12:08:00,67.0,60.3,29.59,North,0,0.0,0.0,79,0.00,,,0.00,WUHU216HW,2013-03-23 16:08:00,
2013-03-23 12:13:00,67.0,60.7,29.59,North,0,0.0,0.0,80,0.00,,,0.00,WUHU216HW,2013-03-23 16:13:00,
2013-03-23 12:18:00,66.8,60.5,29.59,North,0,0.0,0.0,80,0.00,,,0.00,WUHU216HW,2013-03-23 16:18:00,
2013-03-23 12:23:00,66.8,60.5,29.59,North,0,0.0,0.0,80,0.00,,,0.00,WUHU216HW,2013-03-23 16:23:00,
2013-03-23 12:28:00,66.6,60.3,29.58,North,0,0.0,0.0,80,0.00,,,0.00,WUHU216HW,2013-03-23 16:28:00,
2013-03-23 12:33:00,66.8,60.5,29.59,North,0,0.0,0.0,80,0.00,,,0.00,WUHU216HW,2013-03-23 16:33:00,
2013-03-23 12:38:00,66.6,60.7,29.59,North,0,0.0,0.0,81,0.00,,,0.00,WUHU216HW,2013-03-23 16:38:00,
2013-03-23 12:43:00,66.6,60.7,29.59,North,0,0.0,0.0,81,0.00,,,0.00,WUHU216HW,2013-03-23 16:43:00,
2013-03-23 12:48:00,66.6,60.7,29.59,North,0,0.0,0.0,81,0.00,,,0.00,WUHU216HW,2013-03-23 16:48:00,
2013-03-23 12:53:00,66.6,60.7,29.59,North,0,0.0,0.0,81,0.00,,,0.00,WUHU216HW,2013-03-23 16:53:00,
2013-03-23 12:58:00,66.6,60.9,29.59,North,0,0.0,0.0,82,0.00,,,0.00,WUHU216HW,2013-03-23 16:58:00,
2013-03-23 13:03:00,66.6,60.9,29.59,North,0,0.0,0.0,82,0.00,,,0.00,WUHU216HW,2013-03-23 17:03:00,
2013-03-23 13:08:00,66.6,61.3,29.59,North,0,0.0,0.0,83,0.00,,,0.00,WUHU216HW,2013-03-23 17:08:00,
2013-03-23 13:13:00,66.6,61.3,29.59,North,0,0.0,0.0,83,0.00,,,0.00,WUHU216HW,2013-03-23 17:13:00,
2013-03-23 13:18:00,66.6,61.3,29.58,North,0,0.0,0.0,83,0.00,,,0.00,WUHU216HW,2013-03-23 17:18:00,
2013-03-23 13:23:00,66.6,61.3,29.59,North,0,0.0,0.0,83,0.00,,,0.00,WUHU216HW,2013-03-23 17:23:00,
2013-03-23 13:28:00,66.6,60.9,29.60,North,0,0.0,0.0,82,0.00,,,0.00,WUHU216HW,2013-03-23 17:28:00,
2013-03-23 13:33:00,66.6,61.3,29.59,North,0,0.0,0.0,83,0.00,,,0.00,WUHU216HW,2013-03-23 17:33:00,
2013-03-23 13:38:00,66.6,61.3,29.59,North,0,0.0,0.0,83,0.00,,,0.00,WUHU216HW,2013-03-23 17:38:00,
2013-03-23 13:43:00,66.6,61.3,29.61,North,0,0.0,0.0,83,0.00,,,0.00,WUHU216HW,2013-03-23 17:43:00,
2013-03-23 13:48:00,66.4,61.1,29.61,North,0,0.0,0.0,83,0.00,,,0.00,WUHU216HW,2013-03-23 17:48:00,
2013-03-23 13:53:00,66.6,60.9,29.61,North,0,0.0,0.0,82,0.00,,,0.00,WUHU216HW,2013-03-23 17:53:00,
2013-03-23 13:59:00,66.6,61.3,29.60,North,0,0.0,0.0,83,0.00,,,0.00,WUHU216HW,2013-03-23 17:59:00,
2013-03-23 14:04:00,66.4,61.1,29.60,North,0,0.0,0.0,83,0.00,,,0.00,WUHU216HW,2013-03-23 18:04:00,
2013-03-23 14:09:00,66.4,61.1,29.59,North,0,0.0,0.0,83,0.00,,,0.00,WUHU216HW,2013-03-23 18:09:00,
2013-03-23 14:14:00,66.2,60.9,29.59,North,0,0.0,0.0,83,0.00,,,0.00,WUHU216HW,2013-03-23 18:14:00,
2013-03-23 14:19:00,66.2,60.9,29.58,North,0,0.0,0.0,83,0.00,,,0.00,WUHU216HW,2013-03-23 18:19:00,
2013-03-23 14:24:00,66.2,60.6,29.57,North,0,0.0,0.0,82,0.00,,,0.00,WUHU216HW,2013-03-23 18:24:00,
2013-03-23 14:29:00,66.4,61.1,29.57,North,0,0.0,0.0,83,0.00,,,0.00,WUHU216HW,2013-03-23 18:29:00,
2013-03-23 14:34:00,66.4,61.1,29.56,North,0,0.0,0.0,83,0.00,,,0.00,WUHU216HW,2013-03-23 18:34:00,
2013-03-23 14:39:00,66.4,61.1,29.57,North,0,0.0,0.0,83,0.00,,,0.00,WUHU216HW,2013-03-23 18:39:00,
2013-03-23 14:44:00,66.4,61.1,29.57,North,0,0.0,0.0,83,0.00,,,0.00,WUHU216HW,2013-03-23 18:44:00,
2013-03-23 14:49:00,66.6,61.3,29.56,North,0,0.0,0.0,83,0.00,,,0.00,WUHU216HW,2013-03-23 18:49:00,
2013-03-23 14:54:00,66.6,61.3,29.59,North,0,0.0,0.0,83,0.00,,,0.00,WUHU216HW,2013-03-23 18:54:00,
2013-03-23 14:59:00,66.6,61.3,29.58,North,0,0.0,0.0,83,0.00,,,0.00,WUHU216HW,2013-03-23 18:59:00,
2013-03-23 15:04:00,66.6,61.3,29.57,North,0,0.0,0.0,83,0.00,,,0.00,WUHU216HW,2013-03-23 19:04:00,
2013-03-23 15:09:00,66.6,61.3,29.57,North,0,0.0,0.0,83,0.00,,,0.00,WUHU216HW,2013-03-23 19:09:00,
2013-03-23 15:14:00,66.6,61.3,29.56,North,0,0.0,0.0,83,0.00,,,0.00,WUHU216HW,2013-03-23 19:14:00,
2013-03-23 15:19:00,66.6,61.3,29.55,North,0,0.0,0.0,83,0.00,,,0.00,WUHU216HW,2013-03-23 19:19:00,
2013-03-23 15:24:00,66.6,61.3,29.56,North,0,0.0,0.0,83,0.00,,,0.00,WUHU216HW,2013-03-23 19:24:00,
2013-03-23 15:29:00,66.8,61.5,29.55,North,0,0.0,0.0,83,0.00,,,0.00,WUHU216HW,2013-03-23 19:29:00,
2013-03-23 15:34:00,67.0,61.7,29.56,North,0,0.0,0.0,83,0.00,,,0.00,WUHU216HW,2013-03-23 19:34:00,
2013-03-23 15:39:00,67.0,61.7,29.56,North,0,0.0,0.0,83,0.00,,,0.00,WUHU216HW,2013-03-23 19:39:00,
2013-03-23 15:44:00,67.0,61.7,29.54,North,0,0.0,0.0,83,0.00,,,0.00,WUHU216HW,2013-03-23 19:44:00,
2013-03-23 15:49:00,66.8,61.5,29.56,North,0,0.0,0.0,83,0.00,,,0.00,WUHU216HW,2013-03-23 19:49:00,
2013-03-23 15:54:00,66.6,61.3,29.58,North,0,0.0,0.0,83,0.00,,,0.00,WUHU216HW,2013-03-23 19:54:00,
2013-03-23 15:59:00,66.6,61.3,29.59,North,0,0.0,0.0,83,0.00,,,0.00,WUHU216HW,2013-03-23 19:59:00,
2013-03-23 16:04:00,66.4,61.1,29.57,North,0,0.0,0.0,83,0.00,,,0.00,WUHU216HW,2013-03-23 20:04:00,
2013-03-23 16:09:00,66.4,61.1,29.54,North,0,0.0,0.0,83,0.00,,,0.00,WUHU216HW,2013-03-23 20:09:00,
2013-03-23 16:14:00,66.4,61.1,29.53,North,0,0.0,0.0,83,0.00,,,0.00,WUHU216HW,2013-03-23 20:14:00,
2013-03-23 16:19:00,66.6,61.3,29.54,North,0,0.0,0.0,83,0.00,,,0.00,WUHU216HW,2013-03-23 20:19:00,
2013-03-23 16:24:00,66.4,61.1,29.52,North,0,0.0,0.0,83,0.00,,,0.00,WUHU216HW,2013-03-23 20:24:00,
2013-03-23 16:29:00,65.5,60.2,29.53,North,0,0.0,0.0,83,0.00,,,0.00,WUHU216HW,2013-03-23 20:29:00,
2013-03-23 16:34:00,64.1,58.2,29.53,North,0,0.0,0.0,81,0.00,,,0.00,WUHU216HW,2013-03-23 20:34:00,
2013-03-23 16:39:00,62.5,56.2,29.54,North,0,0.0,0.0,80,0.00,,,0.00,WUHU216HW,2013-03-23 20:39:00,
2013-03-23 16:44:00,60.7,54.9,29.56,North,0,0.0,0.0,81,0.00,,,0.00,WUHU216HW,2013-03-23 20:44:00,
2013-03-23 16:49:00,60.1,54.4,29.55,North,0,0.0,0.0,81,0.00,,,0.00,WUHU216HW,2013-03-23 20:49:00,
2013-03-23 16:54:00,59.6,53.8,29.57,North,0,0.0,0.0,81,0.00,,,0.00,WUHU216HW,2013-03-23 20:54:00,
2013-03-23 16:59:00,59.0,53.6,29.54,North,0,0.0,0.0,82,0.00,,,0.00,WUHU216HW,2013-03-23 20:59:00,
2013-03-23 17:04:00,58.7,53.2,29.52,North,0,0.0,0.0,82,0.00,,,0.00,WUHU216HW,2013-03-23 21:04:00,
2013-03-23 17:09:00,58.5,53.0,29.46,North,0,0.0,0.0,82,0.00,,,0.00,WUHU216HW,2013-03-23 21:09:00,
2013-03-23 17:14:00,58.5,53.0,29.47,North,0,0.0,0.0,82,0.00,,,0.00,WUHU216HW,2013-03-23 21:14:00,
2013-03-23 17:19:00,58.5,53.0,29.42,North,0,0.0,0.0,82,0.00,,,0.00,WUHU216HW,2013-03-23 21:19:00,
2013-03-23 17:24:00,57.4,52.3,29.38,North,0,0.0,0.0,83,0.00,,,0.00,WUHU216HW,2013-03-23 21:24:00,
2013-03-23 17:29:00,57.2,52.1,29.38,North,0,0.0,0.0,83,0.00,,,0.00,WUHU216HW,2013-03-23 21:29:00,
2013-03-23 17:34:00,57.1,51.9,29.41,North,0,0.0,0.0,83,0.00,,,0.00,WUHU216HW,2013-03-23 21:34:00,
2013-03-23 17:39:00,56.9,51.8,29.41,North,0,0.0,0.0,83,0.00,,,0.00,WUHU216HW,2013-03-23 21:39:00,
2013-03-23 17:44:00,56.7,51.6,29.41,North,0,0.0,0.0,83,0.00,,,0.00,WUHU216HW,2013-03-23 21:44:00,
2013-03-23 17:49:00,56.3,50.9,29.41,North,0,0.0,0.0,82,0.00,,,0.00,WUHU216HW,2013-03-23 21:49:00,
2013-03-23 17:54:00,55.8,50.3,29.43,North,0,0.0,0.0,82,0.00,,,0.00,WUHU216HW,2013-03-23 21:54:00,
2013-03-23 17:59:00,55.6,50.5,29.43,North,0,0.0,0.0,83,0.00,,,0.00,WUHU216HW,2013-03-23 21:59:00,
2013-03-23 18:04:00,55.4,50.3,29.39,North,0,0.0,0.0,83,0.00,,,0.00,WUHU216HW,2013-03-23 22:04:00,
2013-03-23 18:09:00,55.1,50.3,29.33,North,0,0.0,0.0,84,0.00,,,0.00,WUHU216HW,2013-03-23 22:09:00,
2013-03-23 18:14:00,55.1,50.3,29.33,North,0,0.0,0.0,84,0.00,,,0.00,WUHU216HW,2013-03-23 22:14:00,
2013-03-23 18:19:00,55.4,50.6,29.33,North,0,0.0,0.0,84,0.00,,,0.00,WUHU216HW,2013-03-23 22:19:00,
2013-03-23 18:24:00,55.6,50.8,29.36,North,0,0.0,0.0,84,0.00,,,0.00,WUHU216HW,2013-03-23 22:24:00,
2013-03-23 18:29:00,55.8,50.9,29.37,North,0,0.0,0.0,84,0.00,,,0.00,WUHU216HW,2013-03-23 22:29:00,
2013-03-23 18:34:00,55.8,50.9,29.37,North,0,0.0,0.0,84,0.00,,,0.00,WUHU216HW,2013-03-23 22:34:00,
2013-03-23 18:39:00,55.8,50.9,29.36,North,0,0.0,0.0,84,0.00,,,0.00,WUHU216HW,2013-03-23 22:39:00,
2013-03-23 18:44:00,55.6,50.8,29.39,North,0,0.0,0.0,84,0.00,,,0.00,WUHU216HW,2013-03-23 22:44:00,
2013-03-23 18:49:00,55.6,50.8,29.39,North,0,0.0,0.0,84,0.00,,,0.00,WUHU216HW,2013-03-23 22:49:00,
2013-03-23 18:54:00,55.8,50.9,29.39,North,0,0.0,0.0,84,0.00,,,0.00,WUHU216HW,2013-03-23 22:54:00,
2013-03-23 18:59:00,55.8,50.9,29.41,North,0,0.0,0.0,84,0.00,,,0.00,WUHU216HW,2013-03-23 22:59:00,
2013-03-23 19:04:00,55.8,50.9,29.41,North,0,0.0,0.0,84,0.00,,,0.00,WUHU216HW,2013-03-23 23:04:00,
2013-03-23 19:09:00,56.0,51.1,29.41,North,0,0.0,0.0,84,0.00,,,0.00,WUHU216HW,2013-03-23 23:09:00,
2013-03-23 19:14:00,56.0,51.1,29.41,North,0,0.0,0.0,84,0.00,,,0.00,WUHU216HW,2013-03-23 23:14:00,
2013-03-23 19:19:00,56.2,51.3,29.40,North,0,0.0,0.0,84,0.00,,,0.00,WUHU216HW,2013-03-23 23:19:00,
2013-03-23 19:24:00,56.2,51.3,29.40,North,0,0.0,0.0,84,0.00,,,0.00,WUHU216HW,2013-03-23 23:24:00,
2013-03-23 19:29:00,56.5,52.0,29.41,North,0,0.0,0.0,85,0.00,,,0.00,WUHU216HW,2013-03-23 23:29:00,
2013-03-23 19:34:00,56.5,52.0,29.42,North,0,0.0,0.0,85,0.00,,,0.00,WUHU216HW,2013-03-23 23:34:00,
2013-03-23 19:39:00,56.7,52.2,29.42,North,0,0.0,0.0,85,0.00,,,0.00,WUHU216HW,2013-03-23 23:39:00,
2013-03-23 19:44:00,56.7,52.2,29.42,North,0,0.0,0.0,85,0.00,,,0.00,WUHU216HW,2013-03-23 23:44:00,
2013-03-23 19:49:00,56.7,51.8,29.42,North,0,0.0,0.0,84,0.00,,,0.00,WUHU216HW,2013-03-23 23:49:00,
2013-03-23 19:54:00,56.7,52.2,29.43,North,0,0.0,0.0,85,0.00,,,0.00,WUHU216HW,2013-03-23 23:54:00,
2013-03-23 19:59:00,56.9,52.4,29.42,North,0,0.0,0.0,85,0.00,,,0.00,WUHU216HW,2013-03-23 23:59:00,
2013-03-23 20:04:00,56.9,52.4,29.43,North,0,0.0,0.0,85,0.00,,,0.00,WUHU216HW,2013-03-24 00:04:00,
2013-03-23 20:09:00,56.9,52.4,29.43,North,0,0.0,0.0,85,0.00,,,0.00,WUHU216HW,2013-03-24 00:09:00,
2013-03-23 20:14:00,56.9,52.4,29.43,North,0,0.0,0.0,85,0.00,,,0.00,WUHU216HW,2013-03-24 00:14:00,
2013-03-23 20:19:00,56.7,52.2,29.44,North,0,0.0,0.0,85,0.00,,,0.00,WUHU216HW,2013-03-24 00:19:00,
2013-03-23 20:24:00,56.7,52.2,29.44,North,0,0.0,0.0,85,0.00,,,0.00,WUHU216HW,2013-03-24 00:24:00,
2013-03-23 20:29:00,56.7,52.2,29.45,North,0,0.0,0.0,85,0.00,,,0.00,WUHU216HW,2013-03-24 00:29:00,
2013-03-23 20:34:00,56.7,52.2,29.46,North,0,0.0,0.0,85,0.00,,,0.00,WUHU216HW,2013-03-24 00:34:00,
2013-03-23 20:39:00,56.9,52.4,29.46,North,0,0.0,0.0,85,0.00,,,0.00,WUHU216HW,2013-03-24 00:39:00,
2013-03-23 20:44:00,57.1,52.6,29.46,North,0,0.0,0.0,85,0.00,,,0.00,WUHU216HW,2013-03-24 00:44:00,
2013-03-23 20:49:00,57.1,52.6,29.46,North,0,0.0,0.0,85,0.00,,,0.00,WUHU216HW,2013-03-24 00:49:00,
2013-03-23 20:54:00,57.2,52.7,29.46,North,0,0.0,0.0,85,0.00,,,0.00,WUHU216HW,2013-03-24 00:54:00,
2013-03-23 20:59:00,57.2,52.7,29.47,North,0,0.0,0.0,85,0.00,,,0.00,WUHU216HW,2013-03-24 00:59:00,
2013-03-23 21:04:00,57.2,52.7,29.47,North,0,0.0,0.0,85,0.00,,,0.00,WUHU216HW,2013-03-24 01:04:00,
2013-03-23 21:09:00,57.4,52.9,29.46,North,0,0.0,0.0,85,0.00,,,0.00,WUHU216HW,2013-03-24 01:09:00,
2013-03-23 21:14:00,57.4,52.9,29.45,North,0,0.0,0.0,85,0.00,,,0.00,WUHU216HW,2013-03-24 01:14:00,
2013-03-23 21:19:00,57.4,52.9,29.44,North,0,0.0,0.0,85,0.00,,,0.00,WUHU216HW,2013-03-24 01:19:00,
2013-03-23 21:24:00,57.6,53.1,29.41,North,0,0.0,0.0,85,0.00,,,0.00,WUHU216HW,2013-03-24 01:24:00,
2013-03-23 21:29:00,57.8,53.3,29.41,North,0,0.0,0.0,85,0.00,,,0.00,WUHU216HW,2013-03-24 01:29:00,
2013-03-23 21:34:00,58.0,53.5,29.43,North,0,0.0,0.0,85,0.00,,,0.00,WUHU216HW,2013-03-24 01:34:00,
2013-03-23 21:39:00,58.1,53.6,29.43,North,0,0.0,0.0,85,0.00,,,0.00,WUHU216HW,2013-03-24 01:39:00,
2013-03-23 21:44:00,58.3,53.8,29.42,North,0,0.0,0.0,85,0.00,,,0.00,WUHU216HW,2013-03-24 01:44:00,
2013-03-23 21:49:00,58.5,54.0,29.42,North,0,0.0,0.0,85,0.00,,,0.00,WUHU216HW,2013-03-24 01:49:00,
2013-03-23 21:54:00,58.5,54.0,29.44,North,0,0.0,0.0,85,0.00,,,0.00,WUHU216HW,2013-03-24 01:54:00,
2013-03-23 21:59:00,58.7,54.2,29.43,North,0,0.0,0.0,85,0.00,,,0.00,WUHU216HW,2013-03-24 01:59:00,
2013-03-23 22:04:00,58.7,54.2,29.42,North,0,0.0,0.0,85,0.00,,,0.00,WUHU216HW,2013-03-24 02:04:00,
2013-03-23 22:09:00,58.7,54.2,29.42,North,0,0.0,0.0,85,0.00,,,0.00,WUHU216HW,2013-03-24 02:09:00,
2013-03-23 22:14:00,58.9,54.4,29.44,North,0,0.0,0.0,85,0.00,,,0.00,WUHU216HW,2013-03-24 02:14:00,
2013-03-23 22:19:00,58.9,54.4,29.43,North,0,0.0,0.0,85,0.00,,,0.00,WUHU216HW,2013-03-24 02:19:00,
2013-03-23 22:24:00,58.9,54.4,29.42,North,0,0.0,0.0,85,0.00,,,0.00,WUHU216HW,2013-03-24 02:24:00,
2013-03-23 22:29:00,59.0,54.5,29.43,North,0,0.0,0.0,85,0.00,,,0.00,WUHU216HW,2013-03-24 02:29:00,
2013-03-23 22:34:00,59.0,54.5,29.40,North,0,0.0,0.0,85,0.00,,,0.00,WUHU216HW,2013-03-24 02:34:00,
2013-03-23 22:39:00,59.0,54.5,29.41,North,0,0.0,0.0,85,0.00,,,0.00,WUHU216HW,2013-03-24 02:39:00,
2013-03-23 22:44:00,59.0,54.5,29.41,North,0,0.0,0.0,85,0.00,,,0.00,WUHU216HW,2013-03-24 02:44:00,
2013-03-23 22:49:00,59.0,54.5,29.41,North,0,0.0,0.0,85,0.00,,,0.00,WUHU216HW,2013-03-24 02:49:00,
2013-03-23 22:54:00,59.0,54.5,29.43,North,0,0.0,0.0,85,0.00,,,0.00,WUHU216HW,2013-03-24 02:54:00,
2013-03-23 22:59:00,59.2,54.7,29.40,North,0,0.0,0.0,85,0.00,,,0.00,WUHU216HW,2013-03-24 02:59:00,
2013-03-23 23:04:00,59.4,54.9,29.41,North,0,0.0,0.0,85,0.00,,,0.00,WUHU216HW,2013-03-24 03:04:00,
2013-03-23 23:09:00,59.4,54.9,29.41,North,0,0.0,0.0,85,0.00,,,0.00,WUHU216HW,2013-03-24 03:09:00,
2013-03-23 23:14:00,59.6,55.1,29.40,North,0,0.0,0.0,85,0.00,,,0.00,WUHU216HW,2013-03-24 03:14:00,
2013-03-23 23:19:00,59.8,55.3,29.41,North,0,0.0,0.0,85,0.00,,,0.00,WUHU216HW,2013-03-24 03:19:00,
2013-03-23 23:24:00,60.1,55.6,29.39,North,0,0.0,0.0,85,0.00,,,0.00,WUHU216HW,2013-03-24 03:24:00,
2013-03-23 23:29:00,60.1,55.6,29.42,North,0,0.0,0.0,85,0.00,,,0.00,WUHU216HW,2013-03-24 03:29:00,
2013-03-23 23:34:00,60.3,55.8,29.42,North,0,0.0,0.0,85,0.00,,,0.00,WUHU216HW,2013-03-24 03:34:00,
2013-03-23 23:39:00,60.3,55.8,29.43,North,0,0.0,0.0,85,0.00,,,0.00,WUHU216HW,2013-03-24 03:39:00,
2013-03-23 23:44:00,60.5,56.0,29.41,North,0,0.0,0.0,85,0.00,,,0.00,WUHU216HW,2013-03-24 03:44:00,
2013-03-23 23:49:00,60.8,56.3,29.38,North,0,0.0,0.0,85,0.00,,,0.00,WUHU216HW,2013-03-24 03:49:00,
2013-03-23 23:54:00,60.8,56.3,29.38,North,0,0.0,0.0,85,0.00,,,0.00,WUHU216HW,2013-03-24 03:54:00,
2013-03-23 23:59:00,61.0,56.5,29.39,North,0,0.0,0.0,85,0.00,,,0.00,WUHU216HW,2013-03-24 03:59:00,